Zurück zum Katalog

STARLINK-2105

AktivKommunikationVLEO
NORAD 47385·PAYLOAD·🇺🇸 United States

Gestartet Jan 20, 2021 von Cape Canaveral Space Force Station

Loading…

Nächste Überflüge (nächste 24 Stunden)

TLE

AktuellSource: CelesTrak SupGP

Epoche: Sep 14, 2026, 13:36 UTC

1 47385C 21005AN  26257.56715278 -.00028067  00000+0 -90297-3 0  2579
2 47385  53.1585 238.0984 0001502  88.8850 103.2360 15.31701519    14

Verfolge STARLINK-2105 in Echtzeit mit AllMySat

Download on the App Store